TimeCST,TemperatureF,Dew PointF,Humidity,Sea Level PressureIn,VisibilityMPH,Wind Direction,Wind SpeedMPH,Gust SpeedMPH,PrecipitationIn,Events,Conditions,WindDirDegrees,DateUTC
12:15 AM,26.6,26.6,100,30.38,10.0,Calm,Calm,-,N/A,,Clear,0,2013-01-07 06:15:00
12:35 AM,26.6,26.6,100,30.38,10.0,Calm,Calm,-,N/A,,Clear,0,2013-01-07 06:35:00
12:55 AM,26.6,24.8,93,30.37,10.0,Calm,Calm,-,N/A,,Clear,0,2013-01-07 06:55:00
1:15 AM,26.6,26.6,100,30.37,10.0,Calm,Calm,-,N/A,,Clear,0,2013-01-07 07:15:00
1:35 AM,24.8,23.0,93,30.36,10.0,Calm,Calm,-,N/A,,Clear,0,2013-01-07 07:35:00
1:55 AM,24.8,23.0,93,30.36,10.0,Calm,Calm,-,N/A,,Clear,0,2013-01-07 07:55:00
2:15 AM,24.8,24.8,100,30.36,10.0,Calm,Calm,-,N/A,,Clear,0,2013-01-07 08:15:00
2:35 AM,23.0,23.0,100,30.36,10.0,Calm,Calm,-,N/A,,Clear,0,2013-01-07 08:35:00
2:55 AM,23.0,23.0,100,30.36,10.0,Calm,Calm,-,N/A,,Clear,0,2013-01-07 08:55:00
3:15 AM,23.0,23.0,100,30.36,10.0,Calm,Calm,-,N/A,,Clear,0,2013-01-07 09:15:00
3:35 AM,21.2,21.2,100,30.35,10.0,Calm,Calm,-,N/A,,Clear,0,2013-01-07 09:35:00
3:55 AM,23.0,23.0,100,30.34,10.0,Calm,Calm,-,N/A,,Clear,0,2013-01-07 09:55:00
4:15 AM,21.2,21.2,100,30.34,10.0,Calm,Calm,-,N/A,,Clear,0,2013-01-07 10:15:00
4:35 AM,23.0,23.0,100,30.33,10.0,Calm,Calm,-,N/A,,Clear,0,2013-01-07 10:35:00
4:55 AM,23.0,21.2,93,30.34,10.0,Calm,Calm,-,N/A,,Clear,0,2013-01-07 10:55:00
5:15 AM,21.2,21.2,100,30.34,10.0,Calm,Calm,-,N/A,,Clear,0,2013-01-07 11:15:00
5:35 AM,21.2,21.2,100,30.34,10.0,Calm,Calm,-,N/A,,Clear,0,2013-01-07 11:35:00
6:15 AM,21.2,21.2,100,30.35,10.0,Calm,Calm,-,N/A,,Clear,0,2013-01-07 12:15:00
6:35 AM,23.0,21.2,93,30.36,10.0,Calm,Calm,-,N/A,,Clear,0,2013-01-07 12:35:00
6:55 AM,21.2,21.2,100,30.36,10.0,Calm,Calm,-,N/A,,Clear,0,2013-01-07 12:55:00
7:15 AM,21.2,21.2,100,30.37,10.0,Calm,Calm,-,N/A,,Clear,0,2013-01-07 13:15:00
7:35 AM,21.2,21.2,100,30.38,10.0,Calm,Calm,-,N/A,,Clear,0,2013-01-07 13:35:00
7:55 AM,21.2,21.2,100,30.39,10.0,Calm,Calm,-,N/A,,Clear,0,2013-01-07 13:55:00
8:35 AM,24.8,23.0,93,30.38,10.0,Calm,Calm,-,N/A,,Clear,0,2013-01-07 14:35:00
8:55 AM,26.6,26.6,100,30.38,10.0,Calm,Calm,-,N/A,,Clear,0,2013-01-07 14:55:00
9:15 AM,30.2,28.4,93,30.38,10.0,Calm,Calm,-,N/A,,Clear,0,2013-01-07 15:15:00
9:35 AM,32.0,30.2,93,30.39,10.0,Calm,Calm,-,N/A,,Clear,0,2013-01-07 15:35:00
9:55 AM,33.8,32.0,93,30.39,10.0,Calm,Calm,-,N/A,,Clear,0,2013-01-07 15:55:00
10:15 AM,35.6,32.0,87,30.38,10.0,Calm,Calm,-,N/A,,Scattered Clouds,0,2013-01-07 16:15:00
10:35 AM,39.2,32.0,75,30.38,10.0,Calm,Calm,-,N/A,,Clear,0,2013-01-07 16:35:00
10:55 AM,41.0,32.0,70,30.37,10.0,Calm,Calm,-,N/A,,Scattered Clouds,0,2013-01-07 16:55:00
11:35 AM,44.6,32.0,61,30.34,10.0,Calm,Calm,-,N/A,,Clear,0,2013-01-07 17:35:00
11:55 AM,46.4,32.0,57,30.32,10.0,Calm,Calm,-,N/A,,Clear,0,2013-01-07 17:55:00
12:35 PM,51.8,32.0,47,30.28,10.0,Calm,Calm,-,N/A,,Clear,0,2013-01-07 18:35:00
1:15 PM,51.8,32.0,47,30.26,10.0,Calm,Calm,-,N/A,,Clear,0,2013-01-07 19:15:00
1:35 PM,51.8,32.0,47,30.25,10.0,Calm,Calm,-,N/A,,Clear,0,2013-01-07 19:35:00
1:55 PM,53.6,32.0,44,30.24,10.0,Calm,Calm,-,N/A,,Clear,0,2013-01-07 19:55:00
2:15 PM,55.4,32.0,41,30.23,10.0,Calm,Calm,-,N/A,,Scattered Clouds,0,2013-01-07 20:15:00
2:35 PM,55.4,32.0,41,30.22,10.0,Calm,Calm,-,N/A,,Clear,0,2013-01-07 20:35:00
2:55 PM,55.4,30.2,38,30.21,10.0,Calm,Calm,-,N/A,,Clear,0,2013-01-07 20:55:00
3:15 PM,55.4,32.0,41,30.21,10.0,Calm,Calm,-,N/A,,Clear,0,2013-01-07 21:15:00
3:35 PM,55.4,32.0,41,30.21,10.0,Calm,Calm,-,N/A,,Clear,0,2013-01-07 21:35:00
3:55 PM,55.4,32.0,41,30.20,10.0,Calm,Calm,-,N/A,,Scattered Clouds,0,2013-01-07 21:55:00
4:15 PM,53.6,30.2,41,30.20,10.0,Calm,Calm,-,N/A,,Clear,0,2013-01-07 22:15:00
4:35 PM,53.6,32.0,44,30.19,10.0,Calm,Calm,-,N/A,,Clear,0,2013-01-07 22:35:00
4:55 PM,51.8,32.0,47,30.19,10.0,Calm,Calm,-,N/A,,Clear,0,2013-01-07 22:55:00
5:15 PM,50.0,33.8,54,30.19,10.0,Calm,Calm,-,N/A,,Scattered Clouds,0,2013-01-07 23:15:00
5:35 PM,44.6,33.8,66,30.19,10.0,Calm,Calm,-,N/A,,Clear,0,2013-01-07 23:35:00
5:55 PM,44.6,32.0,61,30.19,10.0,Calm,Calm,-,N/A,,Clear,0,2013-01-07 23:55:00
6:15 PM,42.8,32.0,66,30.20,10.0,Calm,Calm,-,N/A,,Clear,0,2013-01-08 00:15:00
6:35 PM,41.0,32.0,70,30.20,10.0,Calm,Calm,-,N/A,,Clear,0,2013-01-08 00:35:00
6:55 PM,41.0,32.0,70,30.21,10.0,Calm,Calm,-,N/A,,Clear,0,2013-01-08 00:55:00
7:15 PM,39.2,32.0,75,30.20,10.0,Calm,Calm,-,N/A,,Clear,0,2013-01-08 01:15:00
7:35 PM,37.4,32.0,81,30.20,10.0,Calm,Calm,-,N/A,,Clear,0,2013-01-08 01:35:00
7:55 PM,37.4,32.0,81,30.19,10.0,Calm,Calm,-,N/A,,Clear,0,2013-01-08 01:55:00
8:15 PM,35.6,32.0,87,30.20,10.0,Calm,Calm,-,N/A,,Clear,0,2013-01-08 02:15:00
8:35 PM,35.6,32.0,87,30.19,10.0,Calm,Calm,-,N/A,,Clear,0,2013-01-08 02:35:00
8:55 PM,33.8,32.0,93,30.19,10.0,Calm,Calm,-,N/A,,Clear,0,2013-01-08 02:55:00
9:15 PM,33.8,32.0,93,30.19,10.0,Calm,Calm,-,N/A,,Clear,0,2013-01-08 03:15:00
9:35 PM,32.0,30.2,93,30.19,10.0,Calm,Calm,-,N/A,,Clear,0,2013-01-08 03:35:00
9:55 PM,33.8,30.2,87,30.18,10.0,Calm,Calm,-,N/A,,Clear,0,2013-01-08 03:55:00
10:15 PM,32.0,30.2,93,30.17,10.0,Calm,Calm,-,N/A,,Clear,0,2013-01-08 04:15:00
10:35 PM,32.0,30.2,93,30.17,10.0,Calm,Calm,-,N/A,,Clear,0,2013-01-08 04:35:00
10:55 PM,32.0,28.4,87,30.17,10.0,Calm,Calm,-,N/A,,Clear,0,2013-01-08 04:55:00
11:15 PM,32.0,30.2,93,30.16,10.0,Calm,Calm,-,N/A,,Clear,0,2013-01-08 05:15:00
11:35 PM,32.0,30.2,93,30.15,10.0,Calm,Calm,-,N/A,,Clear,0,2013-01-08 05:35:00
11:55 PM,32.0,30.2,93,30.15,10.0,Calm,Calm,-,N/A,,Clear,0,2013-01-08 05:55:00